MET995 - Kuala Lumpur International Airport to Hong Kong

Airbus A330-243
787MT
3 hrs 30 mins
1375 nm
Scheduled - M | TU | TH

Bid/PiRep Status

Bid was submitted on Jan 02 2017.

PiRep # 74582: Approved by Dave Nichols on January 3rd, 2017 5:15 UTC

Departure

Departing from
Kuala Lumpur International Airport (KUL)
Departure gate
Ramp
Scheduled Departure
GMT 1145
Local 1945
METAR WMKK 270130Z VRB01KT 9999 FEW018 BKN140 BKN270 26/24 Q1010 NOSIG
TAF TAF WMKK 262300Z 2700/2806 12005KT 9999 FEW010 SCT140 BKN280 TEMPO 2700/2704 7000 -TSRA FEW016CB SCT020 PROB30 TEMPO 2707/2711 5000 TSRA FEW016CB SCT018 TEMPO 2720/2800 4000 TSRA FEW015CB SCT018
  • No charts available

Arrival

Arriving at
Hong Kong (HKG)
Arrival gate
Ramp
Scheduled Arrival
GMT 1515
Local 2315
METAR VHHH 270130Z 25010KT 9999 FEW020 SCT028 30/27 Q1010 NOSIG
TAF TAF VHHH 262300Z 2700/2806 22010KT 9999 FEW015 SCT030 TX34/2706Z TX34/2806Z TN29/2722Z

Route Map

Planning Resources

PIBOS.A M763 ENREP L642 EPDOS ACORN DUMOL1A
VKL G334 VPT RAXIM M771 CH
ISTANA ISTAN G584 PK L629 DOLOX M771 DUMOL DUMOL1B
VKR R208 IGARI M765 DAGAG M771 DULOP CARSO V551 BETTY BETY2A
Route:
OFP Layout:
Units:
Detailed Navlog:
ETOPS Planning:
Plan Stepclimbs:
Runway Analysis:
Include NOTAMS:
FIR NOTAMS:
Flight Maps:

Return Flights

MET994
Airbus A330-243
0715 GMT

Popularity

Hub Current Bids PiReps this month Total PiReps
KMCI 0 0 3
KLAX 0 0 2
KBOS 0 0 0